Regional Weather Roundup
Issued by NWS

Home | Current Version | Previous Version | Graphics & Text | Print | Product List | Glossary On
Versions: 1 2 3 4 5 6 7 8 9 10 11 12 13 14 15 16 17 18 19 20 21 22 23 24 25 26 27 28 29 30 31 32 33 34 35 36 37 38 39 40 41 42 43 44 45 46 47 48 49 50
000
ASUS43 KOAX 261510
RWRNE

WEATHER ROUNDUP FOR NEBRASKA
NATIONAL WEATHER SERVICE OMAHA NE
1000 AM CDT MON SEP 26 2016

NOTES: SATELLITE DATA IS BEING USED TO AUGMENT CLOUD COVER ABOVE
       12000 FEET.
       "FAIR" INDICATES FEW OR NO CLOUDS BELOW 12,000 FEET WITH NO
       SIGNIFICANT WEATHER AND/OR OBSTRUCTIONS TO VISIBILITY.

  * THESE STATIONS DO NOT REPORT WEATHER SUCH AS RAIN...SNOW OR FOG.

NEZ001>004-019>022-054>056-261600-
NEBRASKA PANHANDLE

CITY           SKY/WX    TMP DP  RH WIND       PRES   REMARKS
SCOTTSBLUFF    SUNNY     49  40  71 NW8       30.37F
ALLIANCE       SUNNY     52  41  66 W9        30.34S
CHADRON        SUNNY     54  38  54 W8        30.33R
KIMBALL        SUNNY     55  40  55 NW10      30.41R
SIDNEY         SUNNY     54  38  54 W14       30.37F
$$

NEZ057>060-069>072-079>082-261600-
SOUTHWEST NEBRASKA

CITY           SKY/WX    TMP DP  RH WIND       PRES   REMARKS
NORTH PLATTE   SUNNY     52  38  58 W9        30.34F
IMPERIAL       SUNNY     54  36  50 W8        30.36F
LEXINGTON      SUNNY     54  38  54 W6        30.32F
MCCOOK         SUNNY     52  40  63 W7        30.36F
OGALLALA       SUNNY     52  40  63 W6        30.35F
$$

NEZ005>010-023>029-035>040-094-261600-
NORTH CENTRAL NEBRASKA

CITY           SKY/WX    TMP DP  RH WIND       PRES   REMARKS
VALENTINE      SUNNY     57  31  37 W16       30.26F
AINSWORTH      SUNNY     60  36  41 W13       30.26F
BROKEN BOW     SUNNY     59  33  37 W13       30.30S
O`NEILL        SUNNY     60  36  41 W12       30.25F
ORD            SUNNY     57  40  52 VRB3      30.28F
THEDFORD       SUNNY     60  34  38 W13       30.30F
$$

NEZ041-046>049-061>064-073>077-083>087-261600-
SOUTH CENTRAL NEBRASKA

CITY           SKY/WX    TMP DP  RH WIND       PRES   REMARKS
GRAND ISLAND   SUNNY     56  37  49 W13       30.30S
AURORA         SUNNY     59  41  51 W7        30.29S
HASTINGS       SUNNY     59  36  42 W8        30.31F
HEBRON         SUNNY     58  44  59 W3        30.30F
HOLDREGE       SUNNY     59  34  39 W7        30.32F
KEARNEY *      SUNNY     61  34  36 W9        30.31S
YORK           SUNNY     59  39  47 NW10      30.29S
$$

NEZ011>018-030>034-042>045-261600-
NORTHEAST NEBRASKA

CITY           SKY/WX    TMP DP  RH WIND       PRES   REMARKS
NORFOLK        SUNNY     57  39  51 W12       30.24S
ALBION         SUNNY     60  36  41 W10G17    30.27S
BLAIR          SUNNY     58  42  56 W6        30.24S
FREMONT        SUNNY     57  41  55 W10       30.25S
TEKAMAH        SUNNY     62  39  42 W12       30.23S
WAYNE          SUNNY     60  42  51 W9        30.23F
$$

NEZ050>053-065>068-078-088>093-261600-
SOUTHEAST NEBRASKA

CITY           SKY/WX    TMP DP  RH WIND       PRES   REMARKS
LINCOLN        SUNNY     61  40  45 W8        30.28S
OMAHA EPPLEY   SUNNY     60  41  49 NW12      30.24S
BEATRICE       SUNNY     59  45  60 W7        30.28S
FALLS CITY     SUNNY     59  46  62 W6        30.26R
NEBRASKA CITY  SUNNY     60  31  33 W12       30.26R
PLATTSMOUTH    SUNNY     60  35  38 NW8       30.25S
$$

NEZ044-045-051>053-067-261600-
OMAHA AREA

CITY           SKY/WX    TMP DP  RH WIND       PRES   REMARKS
OMAHA EPPLEY   SUNNY     60  41  49 NW12      30.24S
BLAIR          SUNNY     58  42  56 W6        30.24S
FREMONT        SUNNY     57  41  55 W10       30.25S
MILLARD        SUNNY     58  43  56 W9        30.24F
OFFUTT AFB     SUNNY     58  44  60 NW9       30.23F
PLATTSMOUTH    SUNNY     60  35  38 NW8       30.25S
WAHOO          FAIR      62  36  37 NW12G20   30.25S
$$



USA.gov is the U.S. government's official web portal to all federal, state and local government web resources and services.